Social login voor leden:
METAR EBOS 140550Z 25021KT 9999 FEW022 BKN034 06/02 Q0994 TEMPO 26022G32KT 4000 SHRA
TAF EBOS 140510Z 1406/1512 26018KT 9999 SCT020 BKN040 TEMPO 1406/1411 27020G35KT PROB40 TEMPO 1406/1412 3000 SHRAGS SCT010 BKN014CB PROB40 TEMPO 1423/1501 3000 SHRASNGS BKN008 BKN012CB PROB40 TEMPO 1508/1510 3000 SHRASNGS BKN008 BKN012CB

NZVC is de eerste Belgische vliegclub met een erkenning als 'Approved Training Organisation (ATO)'

Sinds 3 maart 2015 is de Noordzee Vliegclub Oostende erkend door de Europese Unie en de Belgian Civil Aviation Authority als Approved Training Organisation (ATO). Hierbij zijn we de eerste vliegclub in België die voldoet aan de nieuwste en strengste Europese normen inzake organisatie, kwaliteit en veiligheid bij de opleiding tot Privaat Piloot (PPL).

 

Opleiding Piloot
Meevliegen
Visit Us
Agenda
Opleiding Piloot
Doopvluchten
Visit Us
Volgende activiteit
Noordzee Vliegclub - Nieuwpoortsesteenweg 947 8400 Oostende - Tel 059 30 04 79 - Dit e-mailadres wordt beveiligd tegen spambots. JavaScript dient ingeschakeld te zijn om het te bekijken.

 - Copyright 2017 ©